Regional Weather Roundup
Issued by NWS

Home | Current Version | Previous Version | Graphics & Text | Print | Product List | Glossary Off
Versions: 1 2 3 4 5 6 7 8 9 10 11 12 13 14 15 16 17 18 19 20 21 22 23 24 25 26 27 28 29 30 31 32 33 34 35 36 37 38 39 40 41 42 43 44 45 46 47 48 49 50

000
ASUS43 KDMX 201207
RWRIA

WEATHER ROUNDUP FOR IOWA
NATIONAL WEATHER SERVICE DES MOINES IA
600 AM CST SAT DEC 20 2014

NOTE: "FAIR" INDICATES FEW OR NO CLOUDS BELOW 12,000 FEET WITH NO
SIGNIFICANT WEATHER AND/OR OBSTRUCTIONS TO VISIBILITY.

* - THESE STATIONS ARE NOT NWS STATIONS...THUS NOT UNDER NWS
QUALITY CONTROL.  THEY ALSO DO NOT REPORT WEATHER SUCH
AS PRECIPITATION OR FOG.

IAZ001>003-012>014-020>022-031>034-043>046-201300-
   NORTHWEST IOWA

CITY           SKY/WX    TMP DP  RH WIND       PRES   REMARKS
CARROLL *      CLOUDY    28  28 100 S7        30.12S FOG     WCI  21
CHEROKEE *     CLOUDY    30  30 100 S7        30.11R FOG     WCI  23
DENISON *      CLOUDY    30  30 100 SE8       30.09S FOG     WCI  23
LE MARS *      CLOUDY    32  32 100 SE7       30.09S FOG     WCI  26
ORANGE CITY *  CLOUDY    30  30 100 S6        30.08R FOG     WCI  24
SHELDON *      CLOUDY    30  30 100 S9        30.07S FOG     WCI  22
SIOUX CITY     CLOUDY    32  30  92 SE9       30.10S FOG     WCI  24
6HR MIN TEMP:  32; 6HR MAX TEMP:  33;

SPENCER        CLOUDY    30  27  88 S9        30.11R FOG     WCI  22
6HR MIN TEMP:  30; 6HR MAX TEMP:  31;

STORM LAKE *   CLOUDY    28  28 100 S10       30.11R FOG     WCI  19
$$

IAZ055>058-069>071-079>083-090>094-201300-
   SOUTHWEST IOWA

CITY           SKY/WX    TMP DP  RH WIND       PRES   REMARKS
ATLANTIC *     CLOUDY    30  30 100 VRB6      30.12S FOG     WCI  24
AUDUBON *      CLOUDY    28  25  86 S6        30.13S FOG     WCI  22
CLARINDA *     CLOUDY    32  32 100 S7        30.16S WCI  26
COUNCIL BLFS * FOG       30  32 100 S7        30.09S VSB 1   WCI  23
CRESTON *      CLOUDY    30  30 100 S9        30.14R FOG     WCI  22
HARLAN  *      CLOUDY    30  30 100 S7        30.14S FOG     WCI  23
LAMONI         CLOUDY    31  30  96 S5        30.16S FOG     WCI  26
6HR MIN TEMP:  30; 6HR MAX TEMP:  31; 6HR PCP: TRACE;

RED OAK *      CLOUDY    32  32 100 S8        30.13S FOG     WCI  25
SHENANDOAH *   CLOUDY    32  32 100 S12G17    30.13F FOG     WCI  23
$$

IAZ047>049-059>061-072>074-084-201300-
   CENTRAL IOWA

CITY           SKY/WX    TMP DP  RH WIND       PRES   REMARKS
AMES           CLOUDY    30  28  92 SW5       30.16S FOG     WCI  25
6HR MIN TEMP:  30; 6HR MAX TEMP:  31; 6HR PCP: TRACE;

ANKENY *       CLOUDY    32  30  93 S3        30.17S FOG
CHARITON *     CLOUDY    32  32 100 S6        30.17S FOG     WCI  26
DES MOINES     FLURRIES  32  28  85 SW6       30.17S WCI  26
6HR MIN TEMP:  32; 6HR MAX TEMP:  33; 6HR PCP: TRACE;

GRINNELL*      CLOUDY    30  28  93 SE7       30.18S FOG     WCI  23
KNOXVILLE *    CLOUDY    32  30  93 S5        30.16S FOG     WCI  27
MARSHALLTOWN   CLOUDY    30  29  96 SE7       30.17R FOG     WCI  23
6HR MIN TEMP:  29; 6HR MAX TEMP:  30; 6HR PCP: TRACE;

PELLA *        FOG       31  31  97 S5        30.19S VSB 1/2 WCI  27
PERRY *        CLOUDY    30  30 100 SE6       30.15S FOG     WCI  24
$$

IAZ004>006-015-016-023>025-035-036-201300-
   NORTH CENTRAL IOWA

CITY           SKY/WX    TMP DP  RH WIND       PRES   REMARKS
ALGONA *       CLOUDY    28  28 100 S9        30.13S WCI  20
CLARION *      CLOUDY    30  30 100 SW7       30.15S FOG     WCI  23
ESTHERVILLE    CLOUDY    28  26  92 S12       30.11R WCI  18
6HR MIN TEMP:  28; 6HR MAX TEMP:  30;

FORT DODGE *   CLOUDY    28  25  86 SE3       30.15S
MASON CITY     FOG       29  28  96 SE9       30.16S VSB 1/2 WCI  20
6HR MIN TEMP:  28; 6HR MAX TEMP:  29;

FOREST CITY *  CLOUDY    32  30  93 S5        30.14F FOG     WCI  27
IOWA FALLS *   CLOUDY    30  29  96 SE7       30.17R FOG     WCI  23
$$

IAZ007>011-017>019-026>030-037>042-050>054-066-201300-
   NORTHEAST IOWA

CITY           SKY/WX    TMP DP  RH WIND       PRES   REMARKS
CEDAR RAPIDS   CLOUDY    30  25  81 SE6       30.20S WCI  24
6HR MIN TEMP:  29; 6HR MAX TEMP:  30;

CHARLES CITY * CLOUDY    28  28 100 SE9       30.18S FOG     WCI  20
CLINTON *      CLOUDY    28  25  86 E6        30.27F WCI  22
DECORAH *      CLOUDY    27  27 100 SE6       30.18S FOG     WCI  20
DUBUQUE        CLOUDY    26  24  92 SE6       30.22S FOG     WCI  19
6HR MIN TEMP:  26; 6HR MAX TEMP:  26;

MONTICELLO *   CLOUDY    28  27  93 SE8       30.22S WCI  20
OELWEIN *      CLOUDY    28  27  93 SE8       30.19S WCI  20
WATERLOO       CLOUDY    29  26  89 SE9       30.19R WCI  20
6HR MIN TEMP:  29; 6HR MAX TEMP:  30;

$$

IAZ064-065-067-068-078-201300-
   EAST CENTRAL IOWA

CITY           SKY/WX    TMP DP  RH WIND       PRES   REMARKS
DAVENPORT      CLOUDY    28  23  81 SE6       30.24F WCI  22
6HR MIN TEMP:  28; 6HR MAX TEMP:  29;

IOWA CITY      CLOUDY    30  25  81 SE6       30.23F WCI  24
6HR MIN TEMP:  30; 6HR MAX TEMP:  30;

MT. PLEASANT * CLOUDY    31  27  86 SE6       30.23S WCI  25
MUSCATINE *    CLOUDY    32  27  80 SE6       30.24F WCI  26
QUAD CITIES    CLOUDY    29  24  82 E5        30.25  WCI  24
6HR MIN TEMP:  29; 6HR MAX TEMP:  29;

$$

IAZ062-063-075>077-085>089-095>099-201300-
   SOUTHEAST IOWA

CITY           SKY/WX    TMP DP  RH WIND       PRES   REMARKS
BURLINGTON     CLOUDY    31  26  82 SE3       30.23S
6HR MIN TEMP:  31; 6HR MAX TEMP:  31; 6HR PCP: TRACE;

FAIRFIELD *    CLOUDY    32  28  86 S7        30.21S WCI  26
FORT MADISON * CLOUDY    34  28  80 SE6       30.23S WCI  29
KEOKUK *       CLOUDY    32  28  86 SE5       30.22S WCI  27
OSKALOOSA *    CLOUDY    30  29  96 SE7       30.20S FOG     WCI  23
CENTERVILLE *  LGT SNOW  32  32 100 SE6       30.19S WCI  26
OTTUMWA        CLOUDY    31  29  92 S7        30.19S FOG     WCI  24
6HR MIN TEMP:  30; 6HR MAX TEMP:  31;

WASHINGTON *   CLOUDY    32  32 100 S7        30.22S WCI  26
$$

ABBREVIATIONS USED IN REMARKS
   TC - TEMPERATURES IN CELSIUS
  WCI - WIND CHILL INDEX
   HX - HEAT INDEX
  VSB - VISIBILITY
$$



USA.gov is the U.S. government's official web portal to all federal, state and local government web resources and services.